Tracking 22779 objects as of 14-Apr-2021
HD Live streaming from Space Station
objects crossing your sky now

TITAN 4B R/B

Track TITAN 4B R/B now!
10-day predictions
TITAN 4B R/B is classified as:


NORAD ID: 26474
Int'l Code: 2000-047B
Perigee: 544.4 km
Apogee: 627.7 km
Inclination: 68.0 °
Period: 96.2 minutes
Semi major axis: 6957 km
RCS: 15.6118 m2 (large)
Launch date: August 17, 2000
Source: United States (US)
Launch site: AIR FORCE WESTERN TEST RANGE (AFWTR)

Note: This is a ROCKET BODY
aabbcc
Your satellite tracking list
Your tracking list is empty




NASA's NSSDC Master Catalog

Two Line Element Set (TLE):
1 26474U 00047B   21104.04272123  .00000137  00000-0  22734-4 0  9996
2 26474  67.9941 328.2057 0059829 230.1727 129.4142 14.96121495124285
Source of the keplerian elements: AFSPC